Weather History for Zagreb Pleso, Croatia

Change the Weather History Date:

Sunday, January 20, 2013

  Actual Average Record
Temperature  
Mean Temperature 35 °F -  
Max Temperature 41 °F - - ()
Min Temperature 29 °F - - ()
Degree Days  
Heating Degree Days 30    
Moisture  
Dew Point 33 °F    
Average Humidity 90    
Maximum Humidity 100    
Minimum Humidity 78    
Precipitation  
Precipitation 0.24 in - - ()
Sea Level Pressure  
Sea Level Pressure 29.48 in    
Wind  
Wind Speed 1 mph ()    
Max Wind Speed 5 mph    
Max Gust Speed -    
Visibility 2.3 miles    
Events Fog , Rain    
T = Trace of Precipitation, MM = Missing Value Source: Averaged Metar Reports

Daily Weather History Graph

Daily Weather History Graph

Search for Another Location

Airport:

Trip Planner

Search our weather history database for the weather conditions in past years. The results will help you decide how hot, cold, wet, or windy it might be!

Date:

Astronomy

Jan. 20, 2013 Rise Set
Actual Time 7:29 AM CET 4:44 PM CET
Civil Twilight 6:56 AM CET 5:17 PM CET
Nautical Twilight 6:20 AM CET 5:54 PM CET
Astronomical Twilight 5:44 AM CET 6:29 PM CET
Moon 11:36 AM CET (1/20) 1:42 AM CET (1/20)
Length of Visible Light 10h 21m
Length of Day
9h 15m
Waxing Gibbous, 64% of the Moon is Illuminated
Jan 20
Waxing Gibbous
Jan 27
Full
Feb 3
Last Quarter
Feb 10
New
Feb 17
First Quarter

Hourly Weather History & Observations

Time (CET) Temp. Windchill Dew Point Humidity Pressure Visibility Wind Dir Wind Speed Gust Speed Precip Events Conditions
12:00 AM 32.0 °F - 32.0 °F 100% 29.53 in 6.2 mi SE 1.2 mph - N/A   Mostly Cloudy
12:30 AM 32.0 °F - 30.2 °F 93% 29.53 in 3.1 mi Calm Calm - N/A   Partly Cloudy
1:00 AM 32 °F - 31 °F 92% 29.56 in 2 mi Calm Calm - -   Mist
1:00 AM 32.0 °F - 30.2 °F 93% 29.53 in 2.5 mi Calm Calm - N/A   Partly Cloudy
1:30 AM 32.0 °F - 32.0 °F 100% 29.53 in 3.1 mi Calm Calm - N/A   Overcast
2:00 AM 32.0 °F - 32.0 °F 100% 29.53 in 3.1 mi Calm Calm - N/A   Overcast
2:30 AM 32.0 °F - 32.0 °F 100% 29.53 in 2.5 mi Calm Calm - N/A   Overcast
3:00 AM 32.0 °F - 32.0 °F 100% 29.53 in 2.5 mi Variable 2.3 mph - N/A   Overcast
3:30 AM 32.0 °F - 32.0 °F 100% 29.53 in 2.5 mi Calm Calm - N/A   Overcast
4:00 AM 33 °F - 32 °F 92% 29.54 in 4 mi Calm Calm - -   Mist
4:00 AM 32.0 °F - 32.0 °F 100% 29.50 in 3.1 mi Calm Calm - N/A   Overcast
4:30 AM 33.8 °F - 32.0 °F 93% 29.50 in 3.1 mi Variable 1.2 mph - N/A   Overcast
5:00 AM 33.8 °F 30.8 °F 32.0 °F 93% 29.50 in 1.9 mi ENE 3.5 mph - N/A Fog Patches of Fog
5:30 AM 33.8 °F 29.6 °F 32.0 °F 93% 29.50 in 2.5 mi ENE 4.6 mph - N/A   Overcast
6:00 AM 33.8 °F 30.8 °F 32.0 °F 93% 29.50 in 2.5 mi ENE 3.5 mph - N/A   Overcast
6:30 AM 33.8 °F 29.6 °F 32.0 °F 93% 29.50 in 3.1 mi NNE 4.6 mph - N/A   Overcast
7:00 AM 33 °F - 32 °F 93%  in 3 mi NE 2.2 mph - -   Mist
7:00 AM 33.8 °F 30.8 °F 32.0 °F 93% 29.50 in 3.1 mi NE 3.5 mph - N/A   Mostly Cloudy
7:30 AM 33.8 °F 29.6 °F 32.0 °F 93% 29.50 in 2.2 mi NE 4.6 mph - N/A   Mostly Cloudy
8:00 AM 33.8 °F 30.8 °F 32.0 °F 93% 29.50 in 2.2 mi NE 3.5 mph - N/A   Mostly Cloudy
8:30 AM 33.8 °F - 32.0 °F 93% 29.50 in 3.1 mi NE 2.3 mph - N/A   Overcast
9:00 AM 35.6 °F 32.8 °F 32.0 °F 87% 29.50 in 3.1 mi NE 3.5 mph - N/A   Mostly Cloudy
9:30 AM 35.6 °F - 33.8 °F 93% 29.50 in 3.7 mi Variable 2.3 mph - N/A   Scattered Clouds
10:00 AM 37 °F - 34 °F 84% 29.54 in 4 mi Calm Calm - -   Mist
10:00 AM 37.4 °F - 33.8 °F 87% 29.50 in 3.7 mi Calm Calm - N/A   Unknown
10:30 AM 37.4 °F - 33.8 °F 87% 29.50 in 3.7 mi Calm Calm - N/A   Partly Cloudy
11:00 AM 37.4 °F - 33.8 °F 87% 29.50 in 3.7 mi Calm Calm - N/A   Mostly Cloudy
11:30 AM 39.2 °F - 33.8 °F 81% 29.50 in 3.1 mi Calm Calm - N/A   Scattered Clouds
12:00 PM 37.4 °F 33.8 °F 33.8 °F 87% 29.50 in 3.1 mi WNW 4.6 mph - N/A   Partly Cloudy
12:30 PM 37.4 °F - 33.8 °F 87% 29.47 in 2.2 mi Variable 2.3 mph - N/A   Mist
1:00 PM 39 °F - 35 °F 78% 29.49 in 2 mi Calm Calm - - Rain Light Rain
1:00 PM 39.2 °F - 33.8 °F 81% 29.47 in 2.2 mi Calm Calm - N/A   Mist
1:30 PM 39.2 °F - 33.8 °F 81% 29.47 in 2.2 mi Calm Calm - N/A   Mist
2:00 PM 39.2 °F - 33.8 °F 81% 29.44 in 2.2 mi Calm Calm - N/A   Mostly Cloudy
2:30 PM 39.2 °F - 35.6 °F 87% 29.44 in 2.2 mi Calm Calm - N/A   Mostly Cloudy
3:00 PM 39.2 °F - 33.8 °F 81% 29.44 in 1.9 mi Calm Calm - N/A   Partly Cloudy
3:30 PM 39.2 °F - 33.8 °F 81% 29.44 in 1.9 mi Calm Calm - N/A   Partly Cloudy
4:00 PM 38 °F - 34 °F 79% 29.47 in 2 mi Calm Calm - -   Mist
4:00 PM 37.4 °F - 33.8 °F 87% 29.44 in 1.6 mi Calm Calm - N/A   Partly Cloudy
4:30 PM 37.4 °F - 33.8 °F 87% 29.44 in 1.6 mi Calm Calm - N/A   Mist
5:00 PM 37.4 °F - 33.8 °F 87% 29.44 in 1.6 mi Variable 1.2 mph - N/A   Mist
5:30 PM 35.6 °F - 32.0 °F 87% 29.44 in 1.6 mi Calm Calm - N/A   Mist
6:00 PM 35.6 °F - 32.0 °F 87% 29.44 in 1.6 mi Calm Calm - N/A   Mist
6:30 PM 35.6 °F - 32.0 °F 87% 29.44 in 1.6 mi Variable 1.2 mph - N/A   Mist
7:00 PM 35 °F - 33 °F 87% 29.47 in 2 mi Calm Calm - - Rain Light Rain
7:00 PM 35.6 °F - 32.0 °F 87% 29.44 in 1.6 mi Calm Calm - N/A Rain Light Rain
7:30 PM 35.6 °F - 32.0 °F 87% 29.44 in 1.2 mi Calm Calm - N/A Rain Light Rain
8:00 PM 33.8 °F 30.8 °F 32.0 °F 93% 29.44 in 0.9 mi West 3.5 mph - N/A Rain Light Rain
8:30 PM 33.8 °F 30.8 °F 33.8 °F 100% 29.44 in 0.9 mi WNW 3.5 mph - N/A Rain Light Rain
9:00 PM 35.6 °F 31.7 °F 33.8 °F 93% 29.44 in 0.9 mi SW 4.6 mph - N/A Rain Rain
9:30 PM 35.6 °F 32.8 °F 33.8 °F 93% 29.44 in 0.9 mi SW 3.5 mph - N/A Rain Light Rain
10:00 PM 35 °F - 34 °F 92% 29.49 in 0 mi SW 4.5 mph - - Rain Light Rain
10:00 PM 35.6 °F 31.7 °F 33.8 °F 93% 29.47 in 0.5 mi SW 4.6 mph - N/A Fog , Rain Light Rain
10:30 PM 35.6 °F 32.8 °F 33.8 °F 93% 29.47 in 0.5 mi WSW 3.5 mph - N/A Fog , Rain Light Rain
11:00 PM 35.6 °F - 33.8 °F 93% 29.47 in 0.5 mi SSE 1.2 mph - N/A Fog , Rain Light Rain
11:30 PM 35.6 °F - 33.8 °F 93% 29.44 in 0.5 mi Calm Calm - N/A Fog , Rain Light Rain